TimeCST,TemperatureF,Dew PointF,Humidity,Sea Level PressureIn,VisibilityMPH,Wind Direction,Wind SpeedMPH,Gust SpeedMPH,PrecipitationIn,Events,Conditions,WindDirDegrees,DateUTC
12:52 AM,19.0,7.0,59,30.12,10.0,South,5.8,-,N/A,,Clear,190,2012-12-11 06:52:00
1:52 AM,19.9,7.0,57,30.12,10.0,SSE,5.8,-,N/A,,Clear,160,2012-12-11 07:52:00
2:52 AM,21.0,7.0,55,30.10,10.0,SSE,3.5,-,N/A,,Clear,160,2012-12-11 08:52:00
3:52 AM,19.9,8.1,60,30.10,10.0,South,6.9,-,N/A,,Clear,180,2012-12-11 09:52:00
4:52 AM,18.0,8.1,65,30.10,10.0,South,4.6,-,N/A,,Clear,180,2012-12-11 10:52:00
5:52 AM,21.0,9.0,60,30.11,10.0,South,4.6,-,N/A,,Partly Cloudy,180,2012-12-11 11:52:00
6:52 AM,19.0,9.0,65,30.13,10.0,SSE,5.8,-,N/A,,Partly Cloudy,160,2012-12-11 12:52:00
7:52 AM,19.0,10.0,68,30.15,10.0,SSE,5.8,-,N/A,,Partly Cloudy,160,2012-12-11 13:52:00
8:52 AM,26.1,16.0,66,30.17,10.0,South,5.8,-,N/A,,Partly Cloudy,170,2012-12-11 14:52:00
9:52 AM,32.0,19.0,59,30.19,10.0,SSW,6.9,-,N/A,,Partly Cloudy,200,2012-12-11 15:52:00
10:52 AM,39.9,18.0,41,30.18,10.0,SW,10.4,-,N/A,,Partly Cloudy,220,2012-12-11 16:52:00
11:52 AM,45.0,16.0,31,30.18,10.0,SW,10.4,-,N/A,,Partly Cloudy,230,2012-12-11 17:52:00
12:52 PM,46.4,15.8,29,30.13,10.0,WSW,10.4,-,N/A,,Clear,240,2012-12-11 18:52:00
1:52 PM,48.0,16.0,28,30.13,10.0,SSW,8.1,-,N/A,,Clear,210,2012-12-11 19:52:00
2:52 PM,48.9,12.9,24,30.12,10.0,SSW,10.4,-,N/A,,Clear,200,2012-12-11 20:52:00
3:52 PM,48.0,12.0,24,30.12,10.0,SSW,6.9,-,N/A,,Clear,200,2012-12-11 21:52:00
4:52 PM,44.1,12.9,28,30.14,10.0,SSW,5.8,-,N/A,,Clear,210,2012-12-11 22:52:00
5:52 PM,37.9,12.0,35,30.15,10.0,SW,3.5,-,N/A,,Clear,230,2012-12-11 23:52:00
6:52 PM,34.0,12.0,40,30.17,10.0,SSW,3.5,-,N/A,,Clear,200,2012-12-12 00:52:00
7:52 PM,34.0,12.9,42,30.19,10.0,South,4.6,-,N/A,,Clear,170,2012-12-12 01:52:00
8:52 PM,30.9,12.9,47,30.19,10.0,South,5.8,-,N/A,,Clear,170,2012-12-12 02:52:00
9:52 PM,30.9,14.0,50,30.21,10.0,South,4.6,-,N/A,,Clear,180,2012-12-12 03:52:00
10:52 PM,30.0,12.9,49,30.21,10.0,Calm,Calm,-,N/A,,Clear,0,2012-12-12 04:52:00
11:52 PM,27.0,12.9,56,30.21,10.0,SSE,9.2,-,N/A,,Clear,150,2012-12-12 05:52:00